Saint Bonnet de Bellac- Haute Vienne - France
Donnes mto: dimanche, 24/06/2012
Date Horaire Temp. E. Hum. E. P.atmo. Pluie Vent Direction Direction Ensoleilleme Solaire P. de rose Temp au vent Rafales
24/06/2012 00:00 13,1 C 77 % 1022,4 hPa 0,0 mm 0,0 km/h (0 Bft) SE 135 0 min 0 W/m 9,2 C 13,1 C 0,0 km/h (0 Bft)
24/06/2012 00:10 12,9 C 77 % 1022,3 hPa 0,0 mm 0,0 km/h (0 Bft) SE 135 0 min 0 W/m 9,0 C 12,9 C 0,0 km/h (0 Bft)
24/06/2012 00:20 12,7 C 78 % 1022,2 hPa 0,0 mm 0,0 km/h (0 Bft) E-SE 112 0 min 0 W/m 9,0 C 12,7 C 0,0 km/h (0 Bft)
24/06/2012 00:30 12,6 C 78 % 1022,2 hPa 0,0 mm 0,0 km/h (0 Bft) E 90 0 min 0 W/m 8,9 C 12,6 C 0,0 km/h (0 Bft)
24/06/2012 00:40 12,4 C 79 % 1022,3 hPa 0,0 mm 0,0 km/h (0 Bft) E 90 0 min 0 W/m 8,9 C 12,4 C 0,0 km/h (0 Bft)
24/06/2012 00:50 12,3 C 80 % 1022,2 hPa 0,0 mm 0,0 km/h (0 Bft) E 90 0 min 0 W/m 8,9 C 12,3 C 0,0 km/h (0 Bft)
24/06/2012 01:00 12,1 C 80 % 1022,3 hPa 0,0 mm 0,0 km/h (0 Bft) E 90 0 min 0 W/m 8,8 C 12,1 C 0,0 km/h (0 Bft)
24/06/2012 01:10 11,9 C 81 % 1022,3 hPa 0,0 mm 0,0 km/h (0 Bft) E 90 0 min 0 W/m 8,7 C 11,9 C 0,0 km/h (0 Bft)
24/06/2012 01:20 11,8 C 81 % 1022,2 hPa 0,0 mm 0,0 km/h (0 Bft) E 90 0 min 0 W/m 8,6 C 11,8 C 0,0 km/h (0 Bft)
24/06/2012 01:30 11,8 C 83 % 1022,3 hPa 0,0 mm 1,4 km/h (1 Bft) SO 225 0 min 0 W/m 9,0 C 11,8 C 3,6 km/h (1 Bft)
24/06/2012 01:40 11,6 C 84 % 1022,3 hPa 0,0 mm 0,0 km/h (0 Bft) O-SO 247 0 min 0 W/m 9,0 C 11,6 C 0,0 km/h (0 Bft)
24/06/2012 01:50 11,6 C 84 % 1022,4 hPa 0,0 mm 0,0 km/h (0 Bft) S-SO 202 0 min 0 W/m 9,0 C 11,6 C 0,0 km/h (0 Bft)
24/06/2012 02:00 11,6 C 84 % 1022,3 hPa 0,0 mm 0,0 km/h (0 Bft) S-SO 202 0 min 0 W/m 9,0 C 11,6 C 0,0 km/h (0 Bft)
24/06/2012 02:10 11,4 C 84 % 1022,5 hPa 0,0 mm 0,0 km/h (0 Bft) S-SO 202 0 min 0 W/m 8,8 C 11,4 C 0,0 km/h (0 Bft)
24/06/2012 02:20 11,3 C 84 % 1022,3 hPa 0,0 mm 0,0 km/h (0 Bft) S-SO 202 0 min 0 W/m 8,7 C 11,3 C 0,0 km/h (0 Bft)
24/06/2012 02:30 11,2 C 84 % 1022,3 hPa 0,0 mm 0,0 km/h (0 Bft) S-SO 202 0 min 0 W/m 8,6 C 11,2 C 0,0 km/h (0 Bft)
24/06/2012 02:40 11,1 C 84 % 1022,1 hPa 0,0 mm 0,0 km/h (0 Bft) S-SE 157 0 min 0 W/m 8,5 C 11,1 C 0,0 km/h (0 Bft)
24/06/2012 02:50 11,1 C 85 % 1022,1 hPa 0,0 mm 0,0 km/h (0 Bft) S-SE 157 0 min 0 W/m 8,7 C 11,1 C 0,0 km/h (0 Bft)
24/06/2012 03:02 11,1 C 85 % 1022,1 hPa 0,0 mm 0,0 km/h (0 Bft) S-SE 157 0 min 0 W/m 8,7 C 11,1 C 0,0 km/h (0 Bft)
24/06/2012 03:10 10,9 C 86 % 1022,0 hPa 0,0 mm 0,0 km/h (0 Bft) S 180 0 min 0 W/m 8,7 C 10,9 C 0,0 km/h (0 Bft)
24/06/2012 03:20 10,8 C 86 % 1021,8 hPa 0,0 mm 0,0 km/h (0 Bft) S 180 0 min 0 W/m 8,6 C 10,8 C 0,0 km/h (0 Bft)
24/06/2012 03:30 10,7 C 86 % 1021,8 hPa 0,0 mm 0,0 km/h (0 Bft) S 180 0 min 0 W/m 8,5 C 10,7 C 0,0 km/h (0 Bft)
24/06/2012 03:40 10,6 C 86 % 1021,9 hPa 0,0 mm 0,0 km/h (0 Bft) S 180 0 min 0 W/m 8,4 C 10,6 C 0,0 km/h (0 Bft)
24/06/2012 03:50 10,4 C 86 % 1021,8 hPa 0,0 mm 0,0 km/h (0 Bft) S 180 0 min 0 W/m 8,2 C 10,4 C 0,0 km/h (0 Bft)
24/06/2012 04:00 10,3 C 86 % 1021,7 hPa 0,0 mm 0,0 km/h (0 Bft) S 180 0 min 0 W/m 8,1 C 10,3 C 0,0 km/h (0 Bft)
24/06/2012 04:10 10,1 C 86 % 1021,7 hPa 0,0 mm 0,0 km/h (0 Bft) S 180 0 min 0 W/m 7,9 C 10,1 C 0,0 km/h (0 Bft)
24/06/2012 04:20 10,0 C 87 % 1021,8 hPa 0,0 mm 0,0 km/h (0 Bft) S 180 0 min 0 W/m 7,9 C 10,0 C 0,0 km/h (0 Bft)
24/06/2012 04:30 10,0 C 87 % 1021,8 hPa 0,0 mm 0,0 km/h (0 Bft) S 180 0 min 0 W/m 7,9 C 10,0 C 0,0 km/h (0 Bft)
24/06/2012 04:40 9,9 C 87 % 1021,7 hPa 0,0 mm 0,0 km/h (0 Bft) S 180 0 min 0 W/m 7,8 C 9,9 C 0,0 km/h (0 Bft)
24/06/2012 04:50 10,0 C 88 % 1021,6 hPa 0,0 mm 0,0 km/h (0 Bft) S 180 0 min 0 W/m 8,1 C 10,0 C 0,0 km/h (0 Bft)
24/06/2012 05:00 10,1 C 88 % 1021,6 hPa 0,0 mm 0,0 km/h (0 Bft) S 180 0 min 0 W/m 8,2 C 10,1 C 0,0 km/h (0 Bft)
24/06/2012 05:10 10,2 C 88 % 1021,5 hPa 0,0 mm 0,0 km/h (0 Bft) E-SE 112 0 min 0 W/m 8,3 C 10,2 C 0,0 km/h (0 Bft)
24/06/2012 05:20 10,3 C 89 % 1021,5 hPa 0,0 mm 0,0 km/h (0 Bft) S-SO 202 0 min 0 W/m 8,6 C 10,3 C 0,0 km/h (0 Bft)
24/06/2012 05:30 10,4 C 88 % 1021,3 hPa 0,0 mm 0,0 km/h (0 Bft) SE 135 0 min 0 W/m 8,5 C 10,4 C 0,0 km/h (0 Bft)
24/06/2012 05:40 10,5 C 89 % 1021,2 hPa 0,0 mm 0,0 km/h (0 Bft) S-SO 202 0 min 0 W/m 8,8 C 10,5 C 0,0 km/h (0 Bft)
24/06/2012 05:50 10,5 C 89 % 1021,2 hPa 0,0 mm 0,0 km/h (0 Bft) S 180 0 min 0 W/m 8,8 C 10,5 C 0,0 km/h (0 Bft)
24/06/2012 06:00 10,5 C 89 % 1021,2 hPa 0,0 mm 0,0 km/h (0 Bft) O-SO 247 0 min 0 W/m 8,8 C 10,5 C 0,0 km/h (0 Bft)
24/06/2012 06:10 10,5 C 89 % 1021,4 hPa 0,0 mm 0,0 km/h (0 Bft) S-SO 202 0 min 0 W/m 8,8 C 10,5 C 0,0 km/h (0 Bft)
24/06/2012 06:20 10,5 C 89 % 1021,5 hPa 0,0 mm 0,0 km/h (0 Bft) SO 225 0 min 0 W/m 8,8 C 10,5 C 0,0 km/h (0 Bft)
24/06/2012 06:30 10,4 C 88 % 1021,5 hPa 0,0 mm 0,0 km/h (0 Bft) SO 225 0 min 0 W/m 8,5 C 10,4 C 0,0 km/h (0 Bft)
24/06/2012 06:40 10,4 C 89 % 1021,5 hPa 0,0 mm 0,0 km/h (0 Bft) O-SO 247 0 min 0 W/m 8,7 C 10,4 C 0,0 km/h (0 Bft)
24/06/2012 06:50 10,5 C 89 % 1021,4 hPa 0,0 mm 0,0 km/h (0 Bft) O-SO 247 0 min 0 W/m 8,8 C 10,5 C 0,0 km/h (0 Bft)
24/06/2012 07:00 10,5 C 89 % 1021,3 hPa 0,0 mm 0,0 km/h (0 Bft) O-SO 247 0 min 0 W/m 8,8 C 10,5 C 0,0 km/h (0 Bft)
24/06/2012 07:10 10,6 C 89 % 1021,2 hPa 0,0 mm 0,0 km/h (0 Bft) O-SO 247 0 min 0 W/m 8,9 C 10,6 C 0,0 km/h (0 Bft)
24/06/2012 07:20 10,8 C 89 % 1021,3 hPa 0,0 mm 0,0 km/h (0 Bft) O-SO 247 0 min 0 W/m 9,1 C 10,8 C 0,0 km/h (0 Bft)
24/06/2012 07:30 11,0 C 89 % 1021,3 hPa 0,0 mm 0,0 km/h (0 Bft) O-SO 247 0 min 0 W/m 9,3 C 11,0 C 0,0 km/h (0 Bft)
24/06/2012 07:40 11,3 C 90 % 1021,1 hPa 0,0 mm 0,0 km/h (0 Bft) O-SO 247 0 min 0 W/m 9,7 C 11,3 C 0,0 km/h (0 Bft)
24/06/2012 07:50 11,8 C 89 % 1021,3 hPa 0,0 mm 0,0 km/h (0 Bft) O-SO 247 0 min 0 W/m 10,0 C 11,8 C 0,0 km/h (0 Bft)
24/06/2012 08:00 12,4 C 88 % 1021,4 hPa 0,0 mm 0,0 km/h (0 Bft) NO 315 0 min 0 W/m 10,5 C 12,4 C 0,0 km/h (0 Bft)
24/06/2012 08:10 12,8 C 87 % 1021,3 hPa 0,0 mm 0,0 km/h (0 Bft) N 360 0 min 0 W/m 10,7 C 12,8 C 0,0 km/h (0 Bft)
24/06/2012 08:20 13,2 C 85 % 1021,3 hPa 0,0 mm 2,2 km/h (1 Bft) S-SO 202 0 min 0 W/m 10,7 C 13,2 C 4,3 km/h (1 Bft)
24/06/2012 08:30 13,5 C 85 % 1021,2 hPa 0,0 mm 1,1 km/h (1 Bft) SO 225 0 min 0 W/m 11,0 C 13,5 C 4,3 km/h (1 Bft)
24/06/2012 08:40 13,9 C 85 % 1021,1 hPa 0,0 mm 2,9 km/h (1 Bft) S-SO 202 0 min 0 W/m 11,4 C 13,9 C 4,3 km/h (1 Bft)
24/06/2012 08:50 14,4 C 83 % 1021,2 hPa 0,0 mm 0,0 km/h (0 Bft) O-SO 247 0 min 0 W/m 11,5 C 14,4 C 0,0 km/h (0 Bft)
24/06/2012 09:00 14,9 C 82 % 1021,4 hPa 0,0 mm 0,7 km/h (0 Bft) S-SO 202 0 min 0 W/m 11,9 C 14,9 C 0,7 km/h (0 Bft)
24/06/2012 09:10 15,4 C 80 % 1021,6 hPa 0,0 mm 1,4 km/h (1 Bft) S-SO 202 0 min 0 W/m 12,0 C 15,4 C 3,6 km/h (1 Bft)
24/06/2012 09:20 15,6 C 79 % 1021,7 hPa 0,0 mm 2,2 km/h (1 Bft) O 270 0 min 0 W/m 12,0 C 15,6 C 4,7 km/h (1 Bft)
24/06/2012 09:30 15,9 C 77 % 1021,7 hPa 0,0 mm 1,8 km/h (1 Bft) O 270 0 min 0 W/m 11,9 C 15,9 C 7,2 km/h (2 Bft)
24/06/2012 09:40 16,3 C 74 % 1021,7 hPa 0,0 mm 3,2 km/h (1 Bft) SO 225 0 min 0 W/m 11,7 C 16,3 C 6,8 km/h (2 Bft)
24/06/2012 09:50 16,8 C 72 % 1021,6 hPa 0,0 mm 4,3 km/h (1 Bft) S-SO 202 0 min 0 W/m 11,7 C 16,8 C 5,8 km/h (2 Bft)
24/06/2012 10:00 17,1 C 70 % 1021,7 hPa 0,0 mm 3,2 km/h (1 Bft) SO 225 0 min 0 W/m 11,6 C 17,1 C 4,3 km/h (1 Bft)
24/06/2012 10:10 17,2 C 70 % 1021,6 hPa 0,0 mm 6,1 km/h (2 Bft) S-SO 202 0 min 0 W/m 11,7 C 17,2 C 12,6 km/h (3 Bft)
24/06/2012 10:20 17,6 C 68 % 1021,6 hPa 0,0 mm 4,7 km/h (1 Bft) SO 225 0 min 0 W/m 11,6 C 17,6 C 7,9 km/h (2 Bft)
24/06/2012 10:30 17,9 C 67 % 1021,6 hPa 0,0 mm 2,2 km/h (1 Bft) S 180 0 min 0 W/m 11,7 C 17,9 C 5,8 km/h (2 Bft)
24/06/2012 10:40 18,2 C 65 % 1021,5 hPa 0,0 mm 3,2 km/h (1 Bft) S 180 0 min 0 W/m 11,5 C 18,2 C 6,8 km/h (2 Bft)
24/06/2012 10:50 18,6 C 63 % 1021,5 hPa 0,0 mm 3,6 km/h (1 Bft) SO 225 0 min 0 W/m 11,4 C 18,6 C 8,6 km/h (2 Bft)
24/06/2012 11:00 18,9 C 62 % 1021,4 hPa 0,0 mm 5,8 km/h (2 Bft) O-SO 247 0 min 0 W/m 11,5 C 18,9 C 10,4 km/h (2 Bft)
24/06/2012 11:10 18,8 C 62 % 1021,4 hPa 0,0 mm 7,2 km/h (2 Bft) O-SO 247 0 min 0 W/m 11,4 C 18,8 C 9,0 km/h (2 Bft)
24/06/2012 11:20 18,9 C 63 % 1021,4 hPa 0,0 mm 7,2 km/h (2 Bft) SO 225 0 min 0 W/m 11,7 C 18,9 C 10,8 km/h (2 Bft)
24/06/2012 11:30 19,3 C 61 % 1021,2 hPa 0,0 mm 4,7 km/h (1 Bft) SO 225 0 min 0 W/m 11,6 C 19,3 C 4,7 km/h (1 Bft)
24/06/2012 11:40 19,7 C 61 % 1021,4 hPa 0,0 mm 4,0 km/h (1 Bft) O-SO 247 0 min 0 W/m 12,0 C 19,7 C 4,0 km/h (1 Bft)
24/06/2012 11:50 20,0 C 61 % 1021,4 hPa 0,0 mm 2,5 km/h (1 Bft) O-SO 247 0 min 0 W/m 12,2 C 20,0 C 4,0 km/h (1 Bft)
24/06/2012 12:00 20,4 C 58 % 1021,4 hPa 0,0 mm 7,2 km/h (2 Bft) O-SO 247 0 min 0 W/m 11,9 C 20,4 C 9,7 km/h (2 Bft)
24/06/2012 12:10 20,8 C 60 % 1021,2 hPa 0,0 mm 5,0 km/h (1 Bft) SO 225 0 min 0 W/m 12,7 C 20,8 C 9,0 km/h (2 Bft)
24/06/2012 12:20 21,1 C 58 % 1021,1 hPa 0,0 mm 5,4 km/h (2 Bft) SO 225 0 min 0 W/m 12,5 C 21,1 C 7,9 km/h (2 Bft)
24/06/2012 12:30 21,2 C 58 % 1021,1 hPa 0,0 mm 7,2 km/h (2 Bft) O 270 0 min 0 W/m 12,6 C 21,2 C 14,0 km/h (3 Bft)
24/06/2012 12:40 21,2 C 58 % 1021,0 hPa 0,0 mm 1,8 km/h (1 Bft) O-NO 292 0 min 0 W/m 12,6 C 21,2 C 4,3 km/h (1 Bft)
24/06/2012 12:50 21,4 C 57 % 1021,0 hPa 0,0 mm 7,2 km/h (2 Bft) SO 225 0 min 0 W/m 12,5 C 21,4 C 11,5 km/h (2 Bft)
24/06/2012 13:00 21,6 C 57 % 1021,1 hPa 0,0 mm 7,6 km/h (2 Bft) S-SO 202 0 min 0 W/m 12,7 C 21,6 C 8,3 km/h (2 Bft)
24/06/2012 13:10 21,6 C 59 % 1020,9 hPa 0,0 mm 7,9 km/h (2 Bft) S-SO 202 0 min 0 W/m 13,2 C 21,6 C 14,4 km/h (3 Bft)
24/06/2012 13:20 21,8 C 57 % 1020,9 hPa 0,0 mm 5,8 km/h (2 Bft) SO 225 0 min 0 W/m 12,9 C 21,8 C 10,1 km/h (2 Bft)
24/06/2012 13:30 21,9 C 57 % 1020,9 hPa 0,0 mm 5,0 km/h (1 Bft) SO 225 0 min 0 W/m 13,0 C 21,9 C 8,3 km/h (2 Bft)
24/06/2012 13:40 21,9 C 57 % 1020,8 hPa 0,0 mm 11,9 km/h (2 Bft) S-SO 202 0 min 0 W/m 13,0 C 21,9 C 18,7 km/h (3 Bft)
24/06/2012 13:50 22,1 C 58 % 1020,8 hPa 0,0 mm 3,6 km/h (1 Bft) O-SO 247 0 min 0 W/m 13,4 C 22,1 C 6,1 km/h (2 Bft)
24/06/2012 14:00 22,2 C 58 % 1020,8 hPa 0,0 mm 8,6 km/h (2 Bft) S-SO 202 0 min 0 W/m 13,5 C 22,2 C 11,2 km/h (2 Bft)
24/06/2012 14:10 22,4 C 59 % 1020,8 hPa 0,0 mm 9,0 km/h (2 Bft) S-SO 202 0 min 0 W/m 14,0 C 22,4 C 13,0 km/h (3 Bft)
24/06/2012 14:20 22,6 C 56 % 1020,7 hPa 0,0 mm 8,3 km/h (2 Bft) O-SO 247 0 min 0 W/m 13,4 C 22,6 C 8,3 km/h (2 Bft)
24/06/2012 14:30 22,8 C 56 % 1020,8 hPa 0,0 mm 5,4 km/h (2 Bft) O-SO 247 0 min 0 W/m 13,6 C 22,8 C 11,9 km/h (2 Bft)
24/06/2012 14:40 22,9 C 54 % 1020,6 hPa 0,0 mm 5,4 km/h (2 Bft) S-SO 202 0 min 0 W/m 13,1 C 22,9 C 7,9 km/h (2 Bft)
24/06/2012 14:50 23,1 C 55 % 1020,5 hPa 0,0 mm 4,0 km/h (1 Bft) SO 225 0 min 0 W/m 13,6 C 23,1 C 10,4 km/h (2 Bft)
24/06/2012 15:00 23,4 C 55 % 1020,4 hPa 0,0 mm 5,4 km/h (2 Bft) SO 225 0 min 0 W/m 13,8 C 23,4 C 11,5 km/h (2 Bft)
24/06/2012 15:10 23,4 C 52 % 1020,4 hPa 0,0 mm 6,8 km/h (2 Bft) S-SO 202 0 min 0 W/m 13,0 C 23,4 C 10,1 km/h (2 Bft)
24/06/2012 15:20 23,4 C 53 % 1020,4 hPa 0,0 mm 11,2 km/h (2 Bft) S-SO 202 0 min 0 W/m 13,3 C 23,4 C 13,7 km/h (3 Bft)
24/06/2012 15:30 23,5 C 55 % 1020,3 hPa 0,0 mm 4,3 km/h (1 Bft) S-SO 202 0 min 0 W/m 13,9 C 23,5 C 13,3 km/h (3 Bft)
24/06/2012 15:40 23,5 C 54 % 1020,4 hPa 0,0 mm 8,6 km/h (2 Bft) O-SO 247 0 min 0 W/m 13,6 C 23,5 C 18,7 km/h (3 Bft)
24/06/2012 15:50 23,7 C 55 % 1020,2 hPa 0,0 mm 6,5 km/h (2 Bft) SO 225 0 min 0 W/m 14,1 C 23,7 C 10,8 km/h (2 Bft)
24/06/2012 16:00 23,8 C 56 % 1020,3 hPa 0,0 mm 4,0 km/h (1 Bft) SO 225 0 min 0 W/m 14,5 C 23,8 C 7,2 km/h (2 Bft)
24/06/2012 16:10 23,9 C 54 % 1020,4 hPa 0,0 mm 7,6 km/h (2 Bft) O-SO 247 0 min 0 W/m 14,0 C 23,9 C 10,4 km/h (2 Bft)
24/06/2012 16:20 23,8 C 55 % 1020,3 hPa 0,0 mm 7,6 km/h (2 Bft) SO 225 0 min 0 W/m 14,2 C 23,8 C 13,3 km/h (3 Bft)
24/06/2012 16:30 23,9 C 55 % 1020,2 hPa 0,0 mm 6,8 km/h (2 Bft) SO 225 0 min 0 W/m 14,3 C 23,9 C 13,7 km/h (3 Bft)
24/06/2012 16:40 23,8 C 55 % 1020,1 hPa 0,0 mm 14,4 km/h (3 Bft) S 180 0 min 0 W/m 14,2 C 23,8 C 16,9 km/h (3 Bft)
24/06/2012 16:50 23,8 C 56 % 1020,1 hPa 0,0 mm 8,3 km/h (2 Bft) SO 225 0 min 0 W/m 14,5 C 23,8 C 14,0 km/h (3 Bft)
24/06/2012 17:00 23,8 C 54 % 1020,0 hPa 0,0 mm 9,0 km/h (2 Bft) O-SO 247 0 min 0 W/m 13,9 C 23,8 C 13,0 km/h (3 Bft)
24/06/2012 17:10 23,9 C 54 % 1019,9 hPa 0,0 mm 6,1 km/h (2 Bft) S-SO 202 0 min 0 W/m 14,0 C 23,9 C 12,6 km/h (3 Bft)
24/06/2012 17:20 23,9 C 55 % 1019,9 hPa 0,0 mm 7,6 km/h (2 Bft) SO 225 0 min 0 W/m 14,3 C 23,9 C 10,8 km/h (2 Bft)
24/06/2012 17:30 24,1 C 55 % 1019,8 hPa 0,0 mm 10,1 km/h (2 Bft) O-SO 247 0 min 0 W/m 14,5 C 24,1 C 22,7 km/h (4 Bft)
24/06/2012 17:40 24,1 C 55 % 1019,8 hPa 0,0 mm 6,8 km/h (2 Bft) O-NO 292 0 min 0 W/m 14,5 C 24,1 C 8,3 km/h (2 Bft)
24/06/2012 17:50 23,9 C 54 % 1019,7 hPa 0,0 mm 9,4 km/h (2 Bft) SO 225 0 min 0 W/m 14,0 C 23,9 C 15,8 km/h (3 Bft)
24/06/2012 18:00 23,5 C 55 % 1019,7 hPa 0,0 mm 10,8 km/h (2 Bft) SO 225 0 min 0 W/m 13,9 C 23,5 C 20,9 km/h (4 Bft)
24/06/2012 18:10 23,2 C 55 % 1019,8 hPa 0,0 mm 7,6 km/h (2 Bft) O-SO 247 0 min 0 W/m 13,6 C 23,2 C 12,6 km/h (3 Bft)
24/06/2012 18:20 23,2 C 56 % 1019,7 hPa 0,0 mm 7,2 km/h (2 Bft) O-SO 247 0 min 0 W/m 13,9 C 23,2 C 12,6 km/h (3 Bft)
24/06/2012 18:30 23,4 C 55 % 1019,6 hPa 0,0 mm 4,3 km/h (1 Bft) S-SO 202 0 min 0 W/m 13,8 C 23,4 C 7,9 km/h (2 Bft)
24/06/2012 18:40 23,3 C 54 % 1019,7 hPa 0,0 mm 7,6 km/h (2 Bft) SO 225 0 min 0 W/m 13,5 C 23,3 C 7,6 km/h (2 Bft)
24/06/2012 18:50 23,3 C 54 % 1019,9 hPa 0,0 mm 3,6 km/h (1 Bft) SO 225 0 min 0 W/m 13,5 C 23,3 C 7,9 km/h (2 Bft)
24/06/2012 19:00 22,9 C 55 % 1019,8 hPa 0,0 mm 5,4 km/h (2 Bft) SO 225 0 min 0 W/m 13,4 C 22,9 C 8,3 km/h (2 Bft)
24/06/2012 19:10 22,6 C 56 % 1019,8 hPa 0,0 mm 6,5 km/h (2 Bft) SO 225 0 min 0 W/m 13,4 C 22,6 C 11,2 km/h (2 Bft)
24/06/2012 19:20 22,4 C 56 % 1019,8 hPa 0,0 mm 5,8 km/h (2 Bft) S-SO 202 0 min 0 W/m 13,2 C 22,4 C 5,8 km/h (2 Bft)
24/06/2012 19:30 22,3 C 57 % 1019,8 hPa 0,0 mm 8,6 km/h (2 Bft) O-SO 247 0 min 0 W/m 13,4 C 22,3 C 13,3 km/h (3 Bft)
24/06/2012 19:40 22,2 C 58 % 1019,8 hPa 0,0 mm 3,6 km/h (1 Bft) SO 225 0 min 0 W/m 13,5 C 22,2 C 7,9 km/h (2 Bft)
24/06/2012 19:50 21,9 C 57 % 1019,7 hPa 0,0 mm 8,3 km/h (2 Bft) O-SO 247 0 min 0 W/m 13,0 C 21,9 C 9,4 km/h (2 Bft)
24/06/2012 20:00 21,8 C 58 % 1019,7 hPa 0,0 mm 13,7 km/h (3 Bft) SO 225 0 min 0 W/m 13,2 C 21,8 C 23,0 km/h (4 Bft)
24/06/2012 20:10 21,6 C 58 % 1019,8 hPa 0,0 mm 6,1 km/h (2 Bft) SO 225 0 min 0 W/m 13,0 C 21,6 C 6,1 km/h (2 Bft)
24/06/2012 20:20 21,3 C 59 % 1019,8 hPa 0,0 mm 4,0 km/h (1 Bft) S-SO 202 0 min 0 W/m 13,0 C 21,3 C 4,0 km/h (1 Bft)
24/06/2012 20:30 20,9 C 59 % 1019,8 hPa 0,0 mm 6,1 km/h (2 Bft) SO 225 0 min 0 W/m 12,6 C 20,9 C 8,6 km/h (2 Bft)
24/06/2012 20:40 20,6 C 60 % 1019,9 hPa 0,0 mm 4,3 km/h (1 Bft) O 270 0 min 0 W/m 12,6 C 20,6 C 14,4 km/h (3 Bft)
24/06/2012 20:50 20,3 C 61 % 1020,0 hPa 0,0 mm 3,6 km/h (1 Bft) SO 225 0 min 0 W/m 12,5 C 20,3 C 3,6 km/h (1 Bft)
24/06/2012 21:00 20,1 C 62 % 1020,0 hPa 0,0 mm 2,9 km/h (1 Bft) SO 225 0 min 0 W/m 12,6 C 20,1 C 4,0 km/h (1 Bft)
24/06/2012 21:10 19,8 C 64 % 1020,1 hPa 0,0 mm 0,7 km/h (0 Bft) S-SO 202 0 min 0 W/m 12,8 C 19,8 C 4,0 km/h (1 Bft)
24/06/2012 21:20 19,6 C 64 % 1020,1 hPa 0,0 mm 5,4 km/h (2 Bft) SO 225 0 min 0 W/m 12,6 C 19,6 C 5,4 km/h (2 Bft)
24/06/2012 21:30 19,4 C 65 % 1020,2 hPa 0,0 mm 6,5 km/h (2 Bft) SO 225 0 min 0 W/m 12,6 C 19,4 C 9,7 km/h (2 Bft)
24/06/2012 21:40 19,3 C 66 % 1020,2 hPa 0,0 mm 5,0 km/h (1 Bft) S-SO 202 0 min 0 W/m 12,8 C 19,3 C 6,1 km/h (2 Bft)
24/06/2012 21:50 19,1 C 66 % 1020,2 hPa 0,0 mm 4,3 km/h (1 Bft) O-SO 247 0 min 0 W/m 12,6 C 19,1 C 4,3 km/h (1 Bft)
24/06/2012 22:00 18,9 C 67 % 1020,2 hPa 0,0 mm 6,1 km/h (2 Bft) SO 225 0 min 0 W/m 12,6 C 18,9 C 7,2 km/h (2 Bft)
24/06/2012 22:10 18,9 C 68 % 1020,3 hPa 0,0 mm 6,8 km/h (2 Bft) O-NO 292 0 min 0 W/m 12,9 C 18,9 C 10,8 km/h (2 Bft)
24/06/2012 22:20 18,8 C 68 % 1020,3 hPa 0,0 mm 7,9 km/h (2 Bft) SO 225 0 min 0 W/m 12,8 C 18,8 C 8,3 km/h (2 Bft)
24/06/2012 22:30 18,6 C 69 % 1020,4 hPa 0,0 mm 5,4 km/h (2 Bft) SO 225 0 min 0 W/m 12,8 C 18,6 C 7,6 km/h (2 Bft)
24/06/2012 22:40 18,6 C 69 % 1020,3 hPa 0,0 mm 7,2 km/h (2 Bft) S 180 0 min 0 W/m 12,8 C 18,6 C 9,4 km/h (2 Bft)
24/06/2012 22:50 18,5 C 70 % 1020,4 hPa 0,0 mm 7,2 km/h (2 Bft) SO 225 0 min 0 W/m 12,9 C 18,5 C 7,6 km/h (2 Bft)
24/06/2012 23:00 18,4 C 70 % 1020,5 hPa 0,0 mm 4,0 km/h (1 Bft) O-SO 247 0 min 0 W/m 12,8 C 18,4 C 9,4 km/h (2 Bft)
24/06/2012 23:10 18,3 C 71 % 1020,5 hPa 0,0 mm 6,1 km/h (2 Bft) O-SO 247 0 min 0 W/m 12,9 C 18,3 C 11,5 km/h (2 Bft)
24/06/2012 23:20 18,2 C 72 % 1020,6 hPa 0,0 mm 4,0 km/h (1 Bft) SO 225 0 min 0 W/m 13,1 C 18,2 C 10,1 km/h (2 Bft)
24/06/2012 23:30 18,1 C 72 % 1020,6 hPa 0,0 mm 8,6 km/h (2 Bft) S-SO 202 0 min 0 W/m 13,0 C 18,1 C 14,4 km/h (3 Bft)
24/06/2012 23:40 18,0 C 73 % 1020,4 hPa 0,0 mm 7,9 km/h (2 Bft) SO 225 0 min 0 W/m 13,1 C 18,0 C 9,7 km/h (2 Bft)
24/06/2012 23:50 17,8 C 74 % 1020,3 hPa 0,0 mm 5,8 km/h (2 Bft) O 270 0 min 0 W/m 13,1 C 17,8 C 5,8 km/h (2 Bft)
_ Min-Heure 04:40 15:10 18:30 - 08:50 - - - - 04:40 04:40 08:50
Minimum _ 9,9 C 52 % 1019,6 hPa - 0,0 km/h (0 Bft) - - - - 7,8 C 9,9 C 0,0 km/h (0 Bft)
_ Max-Heure 17:40 07:40 02:10 23:50 16:40 - - 23:50 23:50 16:50 17:40 20:00
Maximum _ 24,1 C 90 % 1022,5 hPa 0,0 mm 14,4 km/h
S (3 Bft)
- - 0 min 0 W/m 14,5 C 24,1 C 23,0 km/h
SO (4 Bft)
Moyenne _ 17,3 C 70 % 1021,0 hPa #0,0 mm 3,8 km/h (1 Bft) SO - #0 min. 0 W/m 11,5 C 17,3 C 6,2 km/h (2 Bft)
Saint Bonnet de Bellac- Haute Vienne - France